Location: Betzi
(47.2343°N, 9.5260°E)
Time: 22:50:37
(UTC+00:00)

Helios 1B rocket - Pass Details

Date: 27 May 2022
Orbit: 569 x 578 km, 98.2° (Epoch: 26 June)

Event Time Altitude Azimuth Distance (km) Brightness Sun altitude
Rises 02:40:59 0° 13° (NNE) 2,785 7.0 -7.8°
Reaches altitude 10° 02:43:08 10° 14° (NNE) 1,882 6.0 -7.6°
Maximum altitude 02:47:13 89° 301° (WNW) 577 2.4 -7.0°
Drops below altitude 10° 02:51:16 10° 196° (SSW) 1,868 4.5 -6.5°
Enters shadow 02:52:37 - 196° (SSW) 2,429 5.1 -6.4°
